This demonstration page uses our WeatherBlox Daily Observations layout. Learn more.

Left ArrowRight Arrow

39.95238, -75.16362

Hourly Observations for August 15, 2022

Temp ( °F °C ) Dew Point ( °F °C ) Humidity (%) Winds ( mph kmh ) Pressure ( in mb ) Visibility ( mi km ) Precip ( " mm )
12:54 am 00:54 Mostly Cloudy 70 21.1 58 14.4 66 66 Calm 30.02 1017 10 16 0.00 0.00
1:54 am 01:54 Mostly Cloudy 71 21.7 58 14.4 63 63 W 6 9 30.01 1016 10 16 0.00 0.00
2:54 am 02:54 Partly Cloudy 70 21.1 60 15.6 71 71 SSE 5 7 30.00 1016 10 16 0.00 0.00
3:54 am 03:54 Mostly Cloudy 70 21.1 60 15.6 71 71 Calm 30.00 1016 10 16 0.00 0.00
4:54 am 04:54 Cloudy 70 21.1 62 16.7 76 76 Calm 29.99 1016 10 16 0.00 0.00
5:54 am 05:54 Mostly Cloudy 70 21.1 62 16.7 76 76 Calm 29.98 1015 10 16 0.00 0.00
6:54 am 06:54 Mostly Cloudy 70 21.1 62 16.7 76 76 Calm 29.99 1016 10 16 0.00 0.00
7:54 am 07:54 Mostly Cloudy 73 22.8 62 16.7 68 68 VRB 3 6 29.99 1016 10 16 0.00 0.00
8:54 am 08:54 Mostly Cloudy 72 22.2 60 15.6 66 66 NW 8 13 30.00 1016 10 16 0.00 0.00
9:54 am 09:54 Mostly Cloudy 74 23.3 60 15.6 62 62 VRB 7 11 29.99 1016 10 16 0.00 0.00
10:54 am 10:54 Mostly Cloudy 75 23.9 61 16.1 62 62 NNW 7 11 29.99 1016 10 16 0.00 0.00
11:54 am 11:54 Mostly Cloudy 78 25.6 61 16.1 56 56 N 3 6 29.98 1015 10 16 0.00 0.00
12:54 pm 12:54 Mostly Cloudy 81 27.2 55 12.8 41 41 E 7 11 29.98 1015 10 16 0.00 0.00
1:54 pm 13:54 Mostly Cloudy 83 28.3 57 13.9 41 41 E 12 19 29.97 1015 10 16 0.00 0.00
2:54 pm 14:54 Mostly Cloudy 84 28.9 54 12.2 36 36 E 7 11 29.97 1015 10 16 0.00 0.00
3:54 pm 15:54 Mostly Cloudy 83 28.3 54 12.2 37 37 ESE 13 20 29.95 1014 10 16 0.00 0.00
4:54 pm 16:54 Partly Cloudy 84 28.9 54 12.2 36 36 E 10 17 29.94 1014 10 16 0.00 0.00
5:54 pm 17:54 Partly Cloudy 83 28.3 52 11.1 34 34 ESE 13 20 29.94 1014 10 16 0.00 0.00
6:54 pm 18:54 Partly Cloudy 80 26.7 53 11.7 39 39 ESE 10 17 29.96 1015 10 16 0.00 0.00
7:54 pm 19:54 Partly Cloudy 76 24.4 54 12.2 47 47 ESE 7 11 29.97 1015 10 16 0.00 0.00
8:54 pm 20:54 Partly Cloudy 73 22.8 54 12.2 51 51 ESE 7 11 29.97 1015 10 16 0.00 0.00
9:54 pm 21:54 Mostly Cloudy 72 22.2 56 13.3 57 57 ESE 5 7 29.99 1016 10 16 0.00 0.00
10:54 pm 22:54 Partly Cloudy 70 21.1 56 13.3 61 61 E 3 6 29.99 1016 10 16 0.00 0.00
11:54 pm 23:54 Partly Cloudy 70 21.1 58 14.4 66 66 NE 3 6 29.99 1016 10 16 0.00 0.00

Powered by AerisWeather